Regional Weather Roundup
Issued by NWS Sterling, VA

Home | Current Version | Previous Version | Graphics & Text | Print | Product List | Glossary On
Versions: 1 2 3 4 5 6 7 8 9 10 11 12 13 14 15 16 17 18 19 20 21 22 23 24 25 26 27
000
ASUS41 KLWX 010910
RWRLWX

REGIONAL WEATHER ROUNDUP
NATIONAL WEATHER SERVICE BALTIMORE MD/WASHINGTON DC
500 AM EDT SUN MAY 01 2016

Note: "FAIR" indicates few or no clouds below 12,000 feet
with no significant weather and/or obstructions to visibility.
 TC=TEMPERATURE CELSIUS

 * =Non NWS site. Station does not report precipitation (e.g. rain,
    snow, etc.), thunder, or fog.

DCZ001-MDZ009-015-VAZ040>042-051-053>054-011000-
WASHINGTON METRO

CITY           SKY/WX    TMP DP  RH WIND       PRES   REMARKS
WASHINGTON NAT LGT RAIN  52  50  93 S8        30.13F
DULLES         LGT RAIN  51  49  92 S7        30.12S
ANDREWS AFB    LGT RAIN  50  49  95 SE7       30.12F
FT BELVOIR     LGT RAIN  52  50  94 S5        30.14S
QUANTICO       RAIN      54  52  93 SW10      30.15S
COLLEGE PARK*  CLOUDY    50  46  87 CALM      30.13F
LEESBURG*      RAIN      54  54 100 SE8       30.12S
MANASSAS*      CLOUDY    52  52 100 S9        30.13R
GAITHERSBURG*  CLOUDY    50  46  87 SE7       30.15F

$$

MDZ006>007-011-014-011000-
BALTIMORE METRO

CITY           SKY/WX    TMP DP  RH WIND       PRES   REMARKS
BWI AIRPORT    LGT RAIN  49  47  93 E3        30.14S
MD SCIENCE CTR   N/A     51  46  83 MISG      30.15F
MARTIN STATE   LGT RAIN  52  48  87 SE7       30.17R
ANNAPOLIS      LGT RAIN  52  46  80 MISG      30.14F
FORT MEADE*    CLOUDY    48  46  93 CALM      30.16S

$$

MDZ012-015-019>023-011000-
MARYLAND EASTERN SHORE

CITY           SKY/WX    TMP DP  RH WIND       PRES   REMARKS
OCEAN CITY     CLOUDY    51  47  86 E8        30.15F
SALISBURY      CLOUDY    50  48  93 E5        30.15F
CAMBRIDGE*     CLOUDY    50  45  81 CALM      30.15S
EASTON*        CLOUDY   N/A N/A N/A CALM      30.19S

$$

MDZ017>025-011000-
SOUTHERN MARYLAND

CITY           SKY/WX    TMP DP  RH WIND       PRES   REMARKS
PATUXENT RIVER CLOUDY    54  47  77 S5        30.16R
ST INIGOES       N/A    N/A N/A N/A MISG        N/A
LEONARDTOWN*   CLOUDY    52  46  82 CALM      30.16S

$$

MDZ003>005-011000-
NORTH CENTRAL MARYLAND

CITY           SKY/WX    TMP DP  RH WIND       PRES   REMARKS
FREDERICK*     DRIZZLE   50  50 100 S7        30.13F
HAGERSTOWN APT LGT RAIN  52  49  89 S9        30.08F FOG
WESTMINSTER*   LGT RAIN  48  45  87 SE10      30.11F

$$

MDZ501>502-011000-
WESTERN MARYLAND

CITY           SKY/WX    TMP DP  RH WIND       PRES   REMARKS
OAKLAND*       FOG       48  48 100 S9        29.99F VSB 1/2
CUMBERLAND*    CLOUDY    52  52 100 CALM      30.07F

$$

VAZ025>031-011000-
SHENANDOAH VALLEY

CITY           SKY/WX    TMP DP  RH WIND       PRES   REMARKS
WINCHESTER*    RAIN      52  52 100 S6        30.07F
FRONT ROYAL*   CLOUDY    52  52 100 S3        30.07S
LURAY*         LGT RAIN  52  52 100 CALM      30.07F
NEW MARKET*    CLOUDY    53  52  96 SW5       30.05F
STAUNTON*      DRIZZLE   55  55 100 S5        30.09F
WAYNESBORO*    CLOUDY    51  50  96 MISG      30.08F

$$

WVZ021-048>050-054>055-011000-
EASTERN WEST VIRGINIA PANHANDLE

CITY           SKY/WX    TMP DP  RH WIND       PRES   REMARKS
MARTINSBURG    LGT RAIN  51  50  96 S6        30.07F FOG
PETERSBURG*    LGT RAIN  57  54  90 SE7       30.04S

$$

VAZ036>039-050-011000-
CENTRAL FOOTHILLS

CITY           SKY/WX    TMP DP  RH WIND       PRES   REMARKS
CHARLOTTESVILL LGT RAIN  53  51  93 S8        30.11F
CULPEPER*      LGT RAIN  53  53  99 S3        30.13F
ORANGE*        LGT RAIN  54  54 100 CALM      30.14F
GORDONSVILLE*  CLOUDY    52  52  99 S6        30.12S
WARRENTON*     RAIN      53  48  83 S7        30.11F

$$

VAZ055>057-011000-
NORTH AND CENTRAL PIEDMONT

CITY           SKY/WX    TMP DP  RH WIND       PRES   REMARKS
FREDERICKSBRG* RAIN      52  52 100 SE3       30.14R
STAFFORD*      RAIN      51  49  94 SE5       30.18R

$$

NCZ024-NYZ072-PAZ021-071-VAZ022-071-011000-
OTHER REGIONAL OBSERVATIONS

CITY           SKY/WX    TMP DP  RH WIND       PRES   REMARKS
NEW YORK CITY  CLOUDY    50  34  54 CALM      30.22S
PHILADELPHIA   LGT RAIN  50  40  68 SE3       30.19S
PITTSBURGH     CLOUDY    56  54  93 S3        29.91F
ROANOKE        LGT RAIN  54  53  97 SE6       30.09F
RICHMOND       RAIN      52  51  97 E6        30.14F FOG
RALEIGH        CLOUDY    60  56  86 SE5       30.12S

$$

ANZ530>537-011000-
MARINE OBSERVATIONS

STATION/POSITION TIME  TEMP    WIND        PRES
                       AIR SEA DIR/SP/G
                 (UTC) (F)     (DEG/KT/KT) (MB)
THOMAS PT LIGHT  0900   53 57  160/ 11/ 12 1021.9F
BALT KEY BRIDGE  0800   51     150/  8/  9 1020.7F
COVE POINT       0800   53     180/ 11/ 12 1021.4F
LEWISETTA        0800   55 59  150/  5/  6 1020.3F
SOLOMONS ISLAND  0800   55 58  160/  7/  9   N/A
PINEY POINT      0800          150/ 11/ 12   N/A

$$





USA.gov is the U.S. government's official web portal to all federal, state and local government web resources and services.